Location: Malanoce
(44.2500°N, 7.4667°E)
Time: 21:59:41
(UTC+00:00)

SJ 16-02 - Pass Details

Date: 17 November 2025
Orbit: 585 x 594 km, 75.0° (Epoch: 11 December)

Event Time Altitude Azimuth Distance (km) Brightness Sun altitude
Rises 16:30:59 0° 148° (SSE) 2,823 4.6 -5.7°
Reaches altitude 10° 16:34:23 10° 119° (ESE) 1,928 3.5 -6.3°
Maximum altitude 16:36:13 13° 94° (E) 1,768 3.1 -6.6°
Drops below altitude 10° 16:38:02 10° 69° (ENE) 1,934 3.2 -6.9°
Enters shadow 16:38:42 - 61° (ENE) 2,061 3.4 -7.0°
